Regional Weather Roundup
Issued by NWS Sterling, VA

Home | Current Version | Previous Version | Graphics & Text | Print | Product List | Glossary On
Versions: 1 2 3 4 5 6 7 8 9 10 11 12 13 14 15 16 17 18 19 20 21 22 23 24 25 26 27 28 29 30 31 32 33 34 35 36 37 38 39 40 41 42 43 44 45 46 47 48 49 50
000
ASUS41 KLWX 201810
RWRLWX

REGIONAL WEATHER ROUNDUP
NATIONAL WEATHER SERVICE BALTIMORE MD/WASHINGTON DC
100 PM EST SAT DEC 20 2014

Note: "FAIR" indicates few or no clouds below 12,000 feet
with no significant weather and/or obstructions to visibility.
 TC=TEMPERATURE CELSIUS

 * =Non NWS site. Station does not report precipitation (e.g. rain,
    snow, etc.), thunder, or fog.

DCZ001-MDZ009-015-VAZ040>042-051-053>054-201900-
WASHINGTON METRO

CITY           SKY/WX    TMP DP  RH WIND       PRES   REMARKS
WASHINGTON NAT CLOUDY    39  22  50 CALM      30.29F
DULLES         CLOUDY    33  20  58 CALM      30.28F
FT BELVOIR     CLOUDY    36  21  53 CALM      30.29F
QUANTICO       CLOUDY    35  22  58 E3        30.31F
COLLEGE PARK*  PTSUNNY   36  23  60 CALM      30.28F
LEESBURG*      PTSUNNY   34  27  75 MISG      30.28F
MANASSAS*      SUNNY     34  23  64 N3        30.29F
GAITHERSBURG*  CLOUDY    34  19  55 CALM      30.30S

$$

MDZ006>007-011-014-201900-
BALTIMORE METRO

CITY           SKY/WX    TMP DP  RH WIND       PRES   REMARKS
BWI AIRPORT    CLOUDY    36  20  52 NE3       30.27F
MD SCIENCE CTR   N/A     37  21  52 MISG      30.30F
MARTIN STATE   MOSUNNY   37  25  60 CALM      30.29F
ANNAPOLIS      CLOUDY    38  23  55 CALM      30.28F
FORT MEADE*    CLOUDY    34  23  64 N3        30.29F

$$

MDZ012-015-019>023-201900-
MARYLAND EASTERN SHORE

CITY           SKY/WX    TMP DP  RH WIND       PRES   REMARKS
OCEAN CITY     CLOUDY    36  25  64 N3        30.27F
SALISBURY      CLOUDY    38  25  59 N6        30.26F
BAY BRIDGE AP*   N/A     36  23  60 N6        30.28F
CAMBRIDGE*     CLOUDY    36  25  64 CALM      30.26F
EASTON*        CLOUDY    37  27  65 CALM      30.30F

$$

MDZ017>025-201900-
SOUTHERN MARYLAND

CITY           SKY/WX    TMP DP  RH WIND       PRES   REMARKS
PATUXENT RIVER CLOUDY    35  24  64 CALM      30.28F
ST INIGOES     CLOUDY    36  23  59 W3        30.28F
LEONARDTOWN*   CLOUDY    34  23  64 CALM      30.29F

$$

MDZ003>005-201900-
NORTH CENTRAL MARYLAND

CITY           SKY/WX    TMP DP  RH WIND       PRES   REMARKS
FREDERICK*     SUNNY     36  18  48 CALM      30.30F
HAGERSTOWN APT PTSUNNY   33  21  61 W3        30.25F
WESTMINSTER*   CLOUDY    32  19  59 CALM      30.24S

$$

MDZ501>502-201900-
WESTERN MARYLAND

CITY           SKY/WX    TMP DP  RH WIND       PRES   REMARKS
OAKLAND*       CLOUDY    27  27 100 CALM      30.11F
CUMBERLAND*    PTSUNNY   34  21  60 CALM      30.27F

$$

VAZ025>031-201900-
SHENANDOAH VALLEY

CITY           SKY/WX    TMP DP  RH WIND       PRES   REMARKS
WINCHESTER*    PTSUNNY   34  19  55 CALM      30.24F
FRONT ROYAL*   MOCLDY    34  25  69 CALM      30.24F
LURAY*         CLOUDY    34  28  80 CALM      30.23F
NEW MARKET*    CLOUDY    33  23  67 CALM      30.22F
STAUNTON*      CLOUDY    34  24  66 CALM      30.23F
WAYNESBORO*    CLOUDY    33  24  69 CALM      30.19F

$$

WVZ021-048>050-054>055-201900-
EASTERN WEST VIRGINIA PANHANDLE

CITY           SKY/WX    TMP DP  RH WIND       PRES   REMARKS
MARTINSBURG    PTSUNNY   34  18  52 NE3       30.26F
PETERSBURG*    CLOUDY    34  22  61 CALM      30.23F

$$

VAZ036>039-050-201900-
CENTRAL FOOTHILLS

CITY           SKY/WX    TMP DP  RH WIND       PRES   REMARKS
CHARLOTTESVILL CLOUDY    37  24  59 SE6       30.24F
CULPEPER*      PTSUNNY   36  25  64 CALM      30.27F
ORANGE*        PTSUNNY   36  27  69 CALM      30.28F
GORDONSVILLE*  CLOUDY    35  23  63 CALM      30.25F
WARRENTON*     PTSUNNY   37  29  71 CALM      30.26F

$$

VAZ055>057-201900-
NORTH AND CENTRAL PIEDMONT

CITY           SKY/WX    TMP DP  RH WIND       PRES   REMARKS
FREDERICKSBRG* CLOUDY    37  24  58 CALM      30.28F
STAFFORD*      CLOUDY    36  20  53 CALM      30.32F

$$

NCZ024-NYZ072-PAZ021-071-VAZ022-071-201900-
OTHER REGIONAL OBSERVATIONS

CITY           SKY/WX    TMP DP  RH WIND       PRES   REMARKS
NEW YORK CITY  CLOUDY    32  18  56 N7        30.28F
PHILADELPHIA   CLOUDY    35  20  54 NW6       30.29S
PITTSBURGH     CLOUDY    29  20  69 CALM      30.22F
ROANOKE        CLOUDY    35  24  64 VRB3      30.23F
RICHMOND       CLOUDY    38  20  48 CALM      30.28F
RALEIGH        LGT RAIN  35  30  82 CALM      30.27F FOG

$$

ANZ530>537-201900-
MARINE OBSERVATIONS

STATION/POSITION TIME  TEMP    WIND        PRES
                       AIR SEA DIR/SP/G
                 (UTC) (F)     (DEG/KT/KT) (MB)
THOMAS PT LIGHT  1800   34 41   10/  4/  4 1026.3F
BALT KEY BRIDGE  1800   36     300/  1/  2 1025.2F
COVE POINT       1800   33      20/  2/  4 1025.2F
LEWISETTA        1800   36 41     CALM     1025.2F
SOLOMONS ISLAND  1800      43                N/A

$$



USA.gov is the U.S. government's official web portal to all federal, state and local government web resources and services.